SCP
1 1 1 1 0 0 0 0 0 0 0 0 0 0 0 0 0 1 1 0 0 0 0 0 0 0 0 0 0 0 0 0 0 0 0 0 0 0 0 0 0 0 0 1 1 1 1 0 0
1 1 1 0 0 0 0 0 0 0 0 0 0 0 0 0 0 1 1 1 0 0 0 0 0 0 0 0 0 0 0 0 0 0 0 0 0 0 0 0 0 0 0 0 0 0 0 0 0
1 1 0 0 0 0 0 0 0 0 0 0 0 0 0 0 0 1 1 1 0 0 0 0 0 0 0 0 0 0 0 0 0 0 0 0 0 0 0 0 0 0 0 0 0 0 0 0 0
1 1 0 0 0 0 0 0 0 0 0 0 0 0 0 0 0 0 1 1 1 1 0 0 0 0 0 0 0 0 0 0 0 0 0 0 0 0 0 0 0 0 0 0 0 0 0 0 0
1 1 0 0 0 0 1 1 1 1 1 0 0 0 0 0 0 0 1 1 1 1 0 0 0 0 0 0 0 0 0 0 0 0 0 0 0 0 0 0 0 0 0 0 0 0 0 0 1
1 0 0 0 0 1 1 1 1 1 0 0 0 0 0 0 0 0 1 1 1 1 0 0 0 0 0 0 0 0 0 0 0 0 0 0 0 0 0 0 0 0 0 0 0 1 0 0 1
0 0 0 0 0 1 1 1 1 0 0 0 0 0 0 0 0 0 1 1 1 1 1 0 0 0 1 1 0 0 0 0 0 0 1 1 1 1 1 0 0 0 0 0 1 1 1 1 1
0 0 0 0 1 1 1 0 0 0 0 0 0 0 0 1 1 1 1 1 1 1 1 0 0 0 0 1 1 0 0 0 0 0 1 1 1 1 1 1 0 0 0 1 1 1 1 1 1
0 0 0 1 1 1 0 0 0 0 0 0 1 1 1 1 1 1 1 1 1 1 1 0 0 0 0 1 1 1 0 0 0 0 0 0 0 1 1 1 1 1 1 1 1 1 1 1 1
0 0 1 1 1 1 0 0 0 0 0 0 1 1 1 1 1 1 1 1 1 1 1 1 1 0 0 1 1 1 0 0 0 0 0 0 0 0 0 1 1 1 1 1 1 1 0 0 0
0 0 1 1 1 0 0 0 0 0 0 0 1 1 1 1 1 1 1 1 1 1 1 1 1 0 0 1 1 1 1 1 1 0 0 0 0 0 0 0 1 0 0 0 0 0 0 0 0
0 0 1 0 0 0 0 0 0 0 0 0 0 1 1 1 1 0 0 1 1 1 1 1 1 1 1 1 1 1 1 1 1 1 1 1 0 0 0 0 0 0 0 0 0 0 0 0 0
0 0 0 0 0 0 0 0 0 0 0 0 0 0 1 1 0 0 0 1 1 1 1 1 1 1 1 1 1 1 1 1 1 1 1 1 1 1 0 0 0 0 0 0 0 0 0 0 0
0 0 0 0 0 0 0 0 0 0 0 0 0 0 1 1 1 1 1 1 1 1 1 1 1 1 1 1 1 1 1 1 1 1 1 1 1 1 1 0 0 1 1 0 0 0 0 1 1
0 0 0 0 0 1 1 0 0 1 1 0 0 0 1 1 1 1 1 1 1 1 1 1 1 1 1 1 1 1 1 1 1 1 1 1 1 1 1 1 1 1 1 1 0 0 0 1 1
0 0 0 0 1 1 0 0 0 1 1 0 0 1 1 1 1 1 1 1 1 1 1 1 1 1 1 1 1 2 2 2 1 1 1 1 1 1 1 1 1 1 1 1 1 0 0 0 1
0 0 0 0 1 1 0 0 0 1 1 0 0 1 1 1 1 1 1 1 1 2 2 2 1 1 1 1 1 1 2 2 2 2 1 1 1 1 1 1 1 1 1 1 1 1 0 0 0
0 0 0 0 1 0 0 0 0 1 1 1 0 1 1 1 1 1 2 1 1 2 2 3 2 2 1 1 1 1 2 2 2 2 2 2 1 1 2 2 1 1 1 1 1 1 1 0 0
0 0 0 0 0 0 0 0 1 1 1 1 1 1 1 1 1 1 2 2 2 3 3 3 3 3 3 2 2 2 2 2 3 2 2 2 2 2 2 2 2 2 1 1 1 1 1 0 0
0 0 0 0 0 0 0 1 1 1 1 1 1 1 0 0 1 1 2 3 4 4 4 4 4 4 3 3 3 3 3 3 3 3 2 2 2 2 2 3 3 2 2 1 1 1 1 0 0
0 0 0 0 0 0 0 1 1 1 1 1 1 1 1 0 1 1 2 3 3 4 4 5 5 4 3 3 3 4 4 3 3 2 2 2 2 2 3 3 3 3 2 1 1 1 1 1 0
0 0 0 0 0 0 0 0 1 1 1 1 1 1 1 1 1 1 1 2 2 3 3 4 5 5 4 3 4 4 4 3 2 2 2 2 2 2 3 3 3 2 1 1 1 1 1 1 1
0 0 0 0 0 0 0 0 0 1 1 1 1 1 1 1 1 1 1 1 2 2 2 2 3 4 4 4 3 3 3 2 2 2 2 2 2 3 3 3 2 1 1 1 1 1 1 1 1
0 0 0 0 0 0 0 0 0 0 0 1 1 1 1 1 1 1 1 1 1 2 2 2 2 2 3 4 4 3 3 2 2 2 1 1 2 3 3 3 2 1 1 1 1 1 1 1 1
0 1 1 1 1 0 0 0 1 1 0 1 1 1 1 1 1 1 2 2 1 2 2 2 2 2 3 3 4 4 3 2 2 2 1 1 1 2 3 3 3 2 1 1 1 1 1 1 1
0 1 1 1 1 0 0 0 1 0 0 1 1 1 1 1 1 2 2 2 2 1 2 2 2 2 2 3 3 3 2 2 2 2 1 1 1 1 2 3 3 3 2 2 2 2 2 1 1
0 1 1 1 0 0 0 1 1 0 1 1 1 1 1 1 1 2 2 2 1 1 2 2 2 2 2 2 2 2 1 1 2 2 1 1 1 1 2 3 3 3 3 3 3 3 3 2 1
0 1 1 1 0 0 0 0 0 1 1 1 1 1 1 1 1 1 2 1 1 1 2 2 2 2 2 2 1 1 1 1 2 2 1 1 1 1 2 2 3 3 3 3 3 4 3 3 2
0 1 1 1 0 0 0 0 0 1 1 1 1 1 1 1 1 1 1 1 1 1 2 2 2 2 2 1 1 1 1 1 1 1 1 1 1 1 1 2 2 2 2 3 3 3 3 3 3
0 1 1 1 0 0 0 0 0 0 1 1 1 1 1 1 1 1 1 1 1 1 1 2 2 2 1 1 1 1 1 1 1 1 1 1 1 1 1 1 2 2 2 2 3 3 3 3 3
Wind_Speed
9 10 7 2 1 1 5 6 7 7 8 9 10 9 12 12 9 7 3 3 6 9 10 9 8 9 9 9 9 9 9 9 9 9 9 9 10 10 10 10 10 10 10 10 9 9 10 10 10
10 7 4 2 1 3 6 7 8 8 6 6 8 10 12 11 10 8 3 3 7 10 10 9 8 8 9 9 9 9 9 8 8 8 9 9 9 9 9 9 10 10 10 9 9 10 10 9 9
11 8 3 1 2 5 6 7 7 7 6 6 8 11 9 7 9 6 4 5 8 10 11 10 9 9 9 9 8 9 9 8 8 8 8 8 8 9 9 10 10 10 10 10 9 10 9 9 8
5 3 2 1 7 10 8 6 5 7 6 7 8 9 10 9 6 6 6 7 9 9 11 10 10 9 9 9 9 9 9 9 8 8 8 8 8 8 8 9 9 9 9 9 9 9 9 8 8
4 2 1 4 9 9 7 7 6 7 7 9 11 11 10 9 8 7 6 7 8 8 10 10 10 9 9 9 9 8 8 8 8 8 8 8 8 8 8 8 8 8 8 9 9 8 8 8 8
3 1 1 5 8 7 7 6 6 8 8 8 9 10 7 7 7 5 7 6 7 8 9 10 10 10 9 8 8 8 7 7 7 7 7 7 7 8 8 8 8 8 8 8 8 8 8 8 7
2 1 2 6 7 6 6 6 7 7 8 7 6 8 7 6 5 5 6 6 6 7 7 8 8 8 8 8 7 7 6 6 6 6 6 6 7 7 8 8 7 7 7 7 7 7 7 6 6
2 1 2 4 6 6 5 6 7 8 8 7 6 7 6 6 5 5 5 5 5 5 5 6 7 6 6 6 6 6 5 5 4 4 4 4 6 6 7 7 7 7 6 6 6 6 6 5 4
3 1 3 4 4 5 5 6 7 7 8 9 10 10 8 8 6 5 4 4 4 4 4 4 5 5 5 5 6 5 4 3 3 2 2 2 2 3 3 6 6 6 5 5 4 4 4 3 2
1 2 3 4 5 5 5 5 5 5 7 7 8 9 8 7 6 5 4 4 5 4 3 3 4 4 5 4 4 3 3 2 1 1 2 1 2 3 5 5 5 4 4 3 3 2 1 1 0
1 3 4 6 6 5 4 4 5 5 5 6 6 7 7 5 4 4 4 5 5 4 3 3 3 4 4 3 3 1 1 1 1 1 1 1 2 2 3 2 2 1 2 1 1 1 0 1 1
3 4 4 4 5 4 3 4 5 5 5 6 6 6 5 4 4 4 4 5 5 4 3 2 3 3 4 3 2 2 1 1 1 1 1 2 1 1 2 1 2 1 1 1 1 1 1 2 2
2 4 4 3 3 3 3 4 4 4 5 5 5 6 4 3 3 4 4 5 5 4 3 3 3 2 3 3 2 2 2 1 2 1 1 2 2 2 2 2 2 2 1 1 1 2 3 3 4
2 3 2 3 3 3 3 2 2 4 4 4 4 4 3 3 3 3 3 4 4 3 3 3 2 3 4 3 2 2 2 2 2 1 1 2 2 2 2 2 2 2 1 1 1 2 3 3 3
3 3 3 4 4 4 3 1 3 5 4 4 4 4 3 3 3 3 3 3 3 3 3 3 2 3 3 3 2 2 2 2 1 1 1 2 2 2 2 2 2 1 1 2 2 3 2 2 3
5 5 5 5 5 4 3 2 3 5 4 3 3 4 4 2 3 3 4 3 3 2 3 4 3 2 3 3 2 2 2 2 2 1 2 2 3 3 2 2 1 2 2 2 2 2 2 2 2
6 6 5 5 5 4 3 2 4 5 4 4 4 4 5 4 3 3 4 4 3 3 3 4 3 2 3 3 2 2 3 2 2 2 2 2 3 3 3 2 1 2 2 2 2 2 2 2 2
5 5 4 3 4 4 4 3 5 5 5 4 4 4 4 4 3 4 4 4 4 3 3 4 3 2 4 3 2 2 3 2 2 2 2 2 2 3 3 1 1 2 2 2 2 2 2 1 0
6 6 5 2 3 3 4 3 5 5 5 4 4 4 4 5 5 5 5 5 4 4 4 5 4 3 3 2 2 2 2 1 2 1 2 2 2 2 2 1 2 2 2 1 1 1 1 1 1
7 7 5 3 2 3 4 3 3 5 5 4 3 3 4 5 6 5 5 4 4 4 4 4 4 4 3 2 2 2 2 1 2 2 2 2 2 2 2 2 1 1 1 1 1 1 1 0 1
7 6 5 4 2 5 5 4 5 6 5 4 4 3 5 5 6 5 5 4 4 4 3 4 4 4 3 3 2 2 2 2 2 2 2 2 3 3 3 2 2 1 1 1 1 0 1 0 1
6 4 5 6 5 5 7 4 5 7 6 6 5 4 4 5 5 5 4 4 5 4 4 4 4 4 3 3 3 3 2 1 1 1 1 2 3 3 3 2 2 2 1 2 1 1 0 1 0
5 5 6 8 8 9 9 6 4 8 7 6 6 5 4 5 5 5 4 4 5 5 4 4 4 4 4 3 3 2 2 1 1 1 2 2 2 2 2 2 2 2 1 1 1 1 0 0 0
5 7 9 9 7 8 9 7 3 4 7 7 7 6 5 5 5 6 5 5 5 5 4 4 4 4 3 3 3 2 2 2 2 2 1 1 1 1 1 1 1 1 1 1 1 1 0 0 0
6 5 4 4 6 5 3 3 3 6 6 7 7 6 5 5 5 5 5 4 4 4 3 3 4 3 3 2 2 2 2 2 2 2 1 1 1 1 0 1 1 0 0 0 0 0 0 0 0
6 6 4 5 4 3 1 1 6 8 8 8 7 6 5 5 5 5 5 4 3 3 3 3 3 2 3 2 2 2 2 1 1 1 1 0 0 1 1 0 1 0 0 0 0 0 0 1 0
6 5 6 7 9 7 3 4 6 7 8 7 6 6 5 4 4 5 5 4 3 3 2 2 2 2 2 2 2 2 2 1 0 0 1 0 0 0 0 0 0 0 0 0 0 0 0 0 0
6 6 5 4 4 5 4 1 4 7 7 6 5 5 5 4 3 4 4 4 3 3 2 2 2 2 2 2 1 2 2 1 1 0 1 1 1 0 0 0 1 0 1 1 1 1 1 1 0
5 5 5 4 5 4 4 2 4 6 6 5 5 4 5 4 3 3 3 3 3 3 2 1 2 2 2 1 1 1 1 1 1 1 0 1 0 0 0 1 1 1 1 1 0 1 1 2 1
4 5 5 4 5 5 4 1 4 6 6 5 5 5 4 5 4 3 3 3 2 2 2 1 1 1 1 1 1 1 1 1 1 1 1 1 1 0 1 1 1 1 1 1 1 1 1 1 1
Wind_Direction
264 253 250 252 267 99 63 66 67 61 58 54 52 60 64 49 45 80 105 70 89 98 103 92 77 72 70 70 68 67 67 68 65 63 63 63 63 63 64 65 65 69 70 69 67 68 70 70 70
279 276 271 248 240 88 70 67 65 60 68 75 69 64 69 62 65 91 98 77 91 94 97 91 83 76 73 71 69 68 68 68 65 63 64 62 62 64 66 66 67 71 75 74 71 70 70 69 67
269 268 266 270 43 68 76 75 84 82 68 71 73 65 56 62 68 86 100 99 91 91 95 91 86 80 77 74 72 69 67 67 65 64 66 65 67 68 66 65 67 69 72 74 71 68 66 67 67
269 269 250 66 69 65 76 83 83 83 72 65 74 73 69 58 72 97 110 99 96 96 99 98 91 86 82 79 75 70 66 65 64 65 66 67 71 72 70 69 70 70 70 72 73 70 67 65 63
245 256 112 91 78 72 68 73 76 77 69 66 80 86 82 75 85 101 106 99 98 99 106 109 103 96 90 84 79 73 69 66 66 67 69 71 73 75 74 72 71 71 70 72 73 73 69 65 62
270 270 101 98 90 77 70 68 71 73 76 75 88 96 89 95 95 97 99 102 101 103 110 116 116 110 101 90 82 77 74 70 70 71 71 74 74 74 76 74 72 73 72 72 73 72 70 65 60
283 307 97 104 97 79 68 62 62 68 61 53 69 92 104 101 105 109 107 106 105 109 117 127 134 129 118 105 94 85 81 79 78 78 78 82 83 80 78 75 71 74 77 77 75 74 74 69 60
283 315 87 89 96 86 75 72 69 67 67 57 58 80 105 117 124 113 112 109 109 113 120 128 132 136 137 128 114 105 99 97 96 93 90 99 101 94 85 82 74 75 78 81 82 81 80 73 61
286 42 77 86 93 98 95 86 83 78 81 71 72 82 100 118 120 117 118 114 108 105 114 120 129 134 132 133 130 136 130 129 128 140 143 134 136 120 98 86 89 84 80 82 89 84 86 78 55
251 77 81 86 93 91 83 90 103 95 80 80 89 95 106 117 121 123 129 126 112 103 103 108 113 118 117 111 128 149 144 148 169 147 159 169 103 91 96 101 99 93 84 77 81 77 74 46 349
93 83 82 77 84 88 91 87 81 99 85 81 93 113 122 127 126 115 110 102 101 106 94 94 107 106 107 109 120 118 113 133 131 76 101 92 96 109 108 126 117 106 100 60 66 59 315 41 51
105 90 87 82 82 93 88 87 77 73 81 88 95 107 113 121 115 111 103 104 101 91 96 87 88 99 105 109 115 117 110 108 94 48 84 85 76 82 99 105 111 110 88 48 57 30 47 50 52
120 113 107 104 109 108 92 84 88 83 92 94 95 103 110 113 103 102 104 105 108 110 119 98 82 88 100 98 107 114 105 102 112 76 53 87 87 80 83 84 76 79 75 64 33 38 41 38 37
120 117 138 151 152 150 127 120 132 114 121 117 114 116 123 106 99 101 96 101 111 109 105 110 109 90 92 100 95 91 97 98 90 81 52 80 81 80 74 77 72 71 70 66 53 59 54 45 39
166 177 197 189 185 154 146 196 155 141 148 150 140 129 114 113 107 92 87 88 88 106 107 103 100 88 93 99 95 98 99 98 85 88 74 89 91 87 77 71 73 74 73 69 56 61 59 57 53
226 219 218 200 187 172 199 224 139 149 167 167 155 139 135 131 118 101 90 80 72 69 94 101 100 94 90 91 97 97 92 80 74 61 53 68 86 90 86 76 65 67 64 68 67 62 62 52 47
232 230 226 191 187 187 212 219 153 162 179 186 176 159 151 142 127 107 90 82 63 47 65 93 97 106 92 89 86 76 87 74 65 53 52 46 69 85 84 74 61 60 64 64 68 63 68 63 57
248 250 243 205 172 199 218 205 160 171 189 192 170 160 143 129 111 100 89 78 66 49 50 78 80 96 90 83 80 71 80 79 67 50 54 56 57 73 87 94 80 64 69 67 67 67 64 74 79
276 278 272 247 165 212 228 220 173 174 188 192 174 152 136 120 104 91 89 88 77 58 56 63 61 69 84 80 84 82 76 74 73 60 58 61 66 77 81 70 74 67 67 79 84 83 68 49 59
272 272 272 247 167 242 237 224 191 181 184 184 177 144 131 114 101 85 77 87 77 57 50 68 58 58 71 64 75 89 93 87 86 63 50 46 53 65 84 79 87 97 94 80 67 81 80 46 63
265 277 284 291 268 244 249 237 207 190 170 153 134 115 106 108 107 101 86 75 80 69 49 65 64 61 67 70 65 67 67 65 68 61 52 39 46 50 56 57 74 96 99 98 92 72 106 162 332
274 311 305 291 279 263 231 245 200 175 163 159 144 122 108 104 104 96 89 89 84 67 43 55 66 63 64 83 78 82 88 82 81 77 63 54 51 45 51 46 54 67 84 95 88 76 63 128 308
303 318 290 277 272 274 256 252 191 165 170 160 143 131 113 109 105 101 86 89 93 81 58 48 53 60 56 64 86 85 79 80 79 74 71 60 61 47 44 47 51 50 50 64 91 84 25 124 175
292 281 265 254 263 259 249 247 176 166 160 149 137 128 117 110 108 104 92 85 88 85 73 57 61 55 56 59 75 88 82 73 73 67 63 45 60 53 44 39 37 40 53 37 42 55 56 241 247
257 276 275 235 221 240 235 234 111 105 118 122 121 121 119 111 106 103 99 91 88 90 79 67 65 64 52 59 65 74 85 77 83 74 65 52 43 6 327 24 341 353 20 79 25 18 296 332 46
264 258 274 294 296 315 249 177 109 104 95 104 111 111 109 108 109 110 109 100 93 89 81 78 70 64 54 44 43 61 72 66 74 89 83 60 206 232 238 234 271 311 302 17 58 54 8 19 59
278 269 277 287 292 286 251 123 120 118 115 112 114 113 111 107 111 114 112 103 93 89 75 79 84 69 56 42 37 43 53 33 60 93 97 148 283 269 185 182 221 310 281 208 205 211 221 336 20
266 297 296 274 288 286 279 193 148 149 143 137 129 124 120 116 113 112 110 105 98 97 92 76 86 84 59 35 24 45 35 353 309 118 129 242 233 264 141 238 213 223 236 207 207 222 232 202 179
227 248 265 277 275 289 303 46 64 130 131 133 131 127 125 126 127 121 116 113 105 96 91 74 68 63 48 19 5 46 43 356 359 353 9 307 305 58 226 232 273 241 225 204 217 217 229 231 207
249 265 269 269 283 290 290 16 70 90 102 119 126 127 129 133 133 127 120 122 116 106 100 78 48 55 56 5 344 28 30 341 359 346 314 296 315 308 277 251 224 242 236 210 212 232 242 245 226